Météo par heure à Jutrkowo

Ce jour, 20 Juin, Dimanche

Heure Température Précipitation Vent Pression Humidité
00:00 +20°C° 0 mm 3 m/s 750 mmHg 88%
01:00 +20°C° 0 mm 3 m/s 750 mmHg 89%
02:00 +19°C° 0 mm 3 m/s 750 mmHg 90%
03:00 +19°C° 0 mm 3 m/s 750 mmHg 90%
04:00 +19°C° 0 mm 3 m/s 750 mmHg 90%
05:00 +20°C° 0 mm 3 m/s 750 mmHg 85%
06:00 +22°C° 0 mm 4 m/s 750 mmHg 79%
07:00 +25°C° 0 mm 4 m/s 750 mmHg 74%
08:00 +26°C° 0 mm 4 m/s 750 mmHg 69%
09:00 +27°C° 0 mm 4 m/s 750 mmHg 63%
10:00 +28°C° 0 mm 4 m/s 750 mmHg 57%
11:00 +29°C° 0 mm 4 m/s 750 mmHg 55%
12:00 +29°C° 0 mm 4 m/s 749 mmHg 53%
13:00 +30°C° 0 mm 5 m/s 749 mmHg 51%
14:00 +30°C° 0 mm 4 m/s 749 mmHg 54%
15:00 +30°C° 0 mm 4 m/s 749 mmHg 56%
16:00 +30°C° 0 mm 4 m/s 748 mmHg 59%
17:00 +28°C° 0.1 mm 4 m/s 748 mmHg 65%
18:00 +27°C° 0.1 mm 3 m/s 748 mmHg 71%
19:00 +26°C° 0.1 mm 3 m/s 747 mmHg 77%
20:00 +24°C° 0 mm 3 m/s 748 mmHg 81%
21:00 +22°C° 0 mm 3 m/s 748 mmHg 85%
22:00 +21°C° 0 mm 3 m/s 748 mmHg 89%
23:00 +20°C° 0 mm 3 m/s 748 mmHg 91%

Demain, 21 Juin, Lundi

Heure Température Précipitation Vent Pression Humidité
00:00 +20°C° 0 mm 3 m/s 748 mmHg 92%
01:00 +20°C° 0 mm 3 m/s 748 mmHg 94%
02:00 +20°C° 0 mm 3 m/s 747 mmHg 94%
03:00 +20°C° 0 mm 3 m/s 747 mmHg 94%
04:00 +19°C° 0 mm 3 m/s 747 mmHg 94%
05:00 +21°C° 0 mm 3 m/s 747 mmHg 87%
06:00 +23°C° 0 mm 4 m/s 747 mmHg 81%
07:00 +25°C° 0 mm 4 m/s 747 mmHg 75%
08:00 +26°C° 0 mm 5 m/s 747 mmHg 69%
09:00 +27°C° 0 mm 5 m/s 747 mmHg 63%
10:00 +28°C° 0 mm 6 m/s 747 mmHg 57%
11:00 +29°C° 0 mm 6 m/s 747 mmHg 55%
12:00 +29°C° 0 mm 5 m/s 746 mmHg 53%
13:00 +30°C° 0 mm 5 m/s 746 mmHg 52%
14:00 +30°C° 0 mm 5 m/s 746 mmHg 55%
15:00 +29°C° 0 mm 5 m/s 746 mmHg 57%
16:00 +29°C° 0 mm 5 m/s 745 mmHg 60%
17:00 +28°C° 0 mm 4 m/s 745 mmHg 66%
18:00 +26°C° 0 mm 4 m/s 745 mmHg 72%
19:00 +25°C° 0 mm 3 m/s 745 mmHg 78%
20:00 +24°C° 0 mm 3 m/s 745 mmHg 82%
21:00 +22°C° 0 mm 3 m/s 745 mmHg 85%
22:00 +20°C° 0 mm 3 m/s 745 mmHg 89%
23:00 +20°C° 0.1 mm 3 m/s 745 mmHg 91%

Après-demain, 22 Juin, Mardi

Heure Température Précipitation Vent Pression Humidité
00:00 +20°C° 0.1 mm 3 m/s 745 mmHg 93%
01:00 +19°C° 0.1 mm 3 m/s 745 mmHg 95%
02:00 +19°C° 0.2 mm 3 m/s 745 mmHg 95%
03:00 +19°C° 0.2 mm 3 m/s 745 mmHg 95%
04:00 +19°C° 0.2 mm 3 m/s 745 mmHg 95%
05:00 +21°C° 0.1 mm 3 m/s 745 mmHg 91%
06:00 +22°C° 0.1 mm 3 m/s 745 mmHg 86%
07:00 +25°C° 0.1 mm 3 m/s 746 mmHg 81%
08:00 +26°C° 1 mm 3 m/s 746 mmHg 78%
09:00 +27°C° 1 mm 3 m/s 746 mmHg 75%
10:00 +27°C° 1 mm 2 m/s 746 mmHg 72%
11:00 +27°C° 0.8 mm 2 m/s 746 mmHg 73%
12:00 +27°C° 0.8 mm 2 m/s 747 mmHg 74%
13:00 +27°C° 0.8 mm 2 m/s 747 mmHg 76%
14:00 +25°C° 0.8 mm 2 m/s 747 mmHg 81%
15:00 +24°C° 0.8 mm 2 m/s 747 mmHg 86%
16:00 +22°C° 0.8 mm 3 m/s 748 mmHg 91%
17:00 +21°C° 0.4 mm 3 m/s 748 mmHg 92%
18:00 +21°C° 0.4 mm 3 m/s 748 mmHg 93%
19:00 +20°C° 0.4 mm 3 m/s 748 mmHg 94%
20:00 +19°C° 0 mm 3 m/s 749 mmHg 95%
21:00 +18°C° 0 mm 3 m/s 749 mmHg 95%
22:00 +17°C° 0 mm 3 m/s 749 mmHg 96%
23:00 +16°C° 0 mm 3 m/s 749 mmHg 95%

23 Juin, Mercredi

Heure Température Précipitation Vent Pression Humidité
00:00 +15°C° 0 mm 2 m/s 749 mmHg 94%
01:00 +14°C° 0 mm 2 m/s 749 mmHg 93%
02:00 +14°C° 0 mm 2 m/s 749 mmHg 92%
03:00 +14°C° 0 mm 2 m/s 749 mmHg 91%
04:00 +14°C° 0 mm 2 m/s 749 mmHg 90%
05:00 +16°C° 0 mm 2 m/s 749 mmHg 86%
06:00 +18°C° 0 mm 2 m/s 749 mmHg 82%
07:00 +19°C° 0 mm 2 m/s 750 mmHg 78%
08:00 +21°C° 0 mm 2 m/s 749 mmHg 75%
09:00 +24°C° 0 mm 2 m/s 749 mmHg 72%
10:00 +26°C° 0 mm 2 m/s 749 mmHg 70%
11:00 +27°C° 0.1 mm 2 m/s 749 mmHg 68%
12:00 +28°C° 0.1 mm 2 m/s 749 mmHg 67%
13:00 +29°C° 0.1 mm 2 m/s 749 mmHg 65%
14:00 +29°C° 0.1 mm 2 m/s 749 mmHg 66%
15:00 +29°C° 0.1 mm 2 m/s 749 mmHg 66%
16:00 +30°C° 0.1 mm 3 m/s 749 mmHg 67%
17:00 +28°C° 1.1 mm 3 m/s 749 mmHg 73%
18:00 +26°C° 1.1 mm 3 m/s 749 mmHg 80%
19:00 +24°C° 1.1 mm 2 m/s 749 mmHg 86%
20:00 +23°C° 0.8 mm 2 m/s 749 mmHg 88%
21:00 +21°C° 0.8 mm 2 m/s 749 mmHg 89%
22:00 +20°C° 0.8 mm 2 m/s 749 mmHg 91%
23:00 +20°C° 0.1 mm 2 m/s 749 mmHg 92%

24 Juin, Jeudi

Heure Température Précipitation Vent Pression Humidité
00:00 +19°C° 0.1 mm 2 m/s 749 mmHg 93%
01:00 +19°C° 0.1 mm 2 m/s 749 mmHg 95%
02:00 +19°C° 0.1 mm 2 m/s 749 mmHg 95%
03:00 +19°C° 0.1 mm 3 m/s 749 mmHg 96%
04:00 +18°C° 0.1 mm 3 m/s 749 mmHg 97%
05:00 +19°C° 0 mm 3 m/s 750 mmHg 94%
06:00 +20°C° 0 mm 3 m/s 750 mmHg 92%
07:00 +20°C° 0 mm 4 m/s 750 mmHg 89%
08:00 +21°C° 0 mm 4 m/s 751 mmHg 82%
09:00 +24°C° 0 mm 3 m/s 751 mmHg 74%
10:00 +25°C° 0 mm 3 m/s 751 mmHg 67%
11:00 +25°C° 0 mm 3 m/s 751 mmHg 65%
12:00 +26°C° 0 mm 3 m/s 751 mmHg 63%
13:00 +26°C° 0 mm 3 m/s 751 mmHg 61%
14:00 +26°C° 0 mm 3 m/s 751 mmHg 62%
15:00 +26°C° 0 mm 2 m/s 751 mmHg 63%
16:00 +26°C° 0 mm 2 m/s 751 mmHg 65%
17:00 +25°C° 0 mm 2 m/s 751 mmHg 71%
18:00 +24°C° 0 mm 2 m/s 750 mmHg 77%
19:00 +23°C° 0 mm 2 m/s 750 mmHg 83%
20:00 +20°C° 0 mm 3 m/s 750 mmHg 87%
21:00 +19°C° 0 mm 3 m/s 750 mmHg 92%
22:00 +17°C° 0 mm 3 m/s 751 mmHg 96%
23:00 +16°C° 0 mm 3 m/s 751 mmHg 96%

25 Juin, Vendredi

Heure Température Précipitation Vent Pression Humidité
00:00 +16°C° 0 mm 2 m/s 750 mmHg 96%
01:00 +15°C° 0 mm 2 m/s 750 mmHg 96%
02:00 +15°C° 0 mm 2 m/s 750 mmHg 95%
03:00 +15°C° 0 mm 2 m/s 750 mmHg 94%
04:00 +15°C° 0 mm 2 m/s 749 mmHg 93%
05:00 +16°C° 0.5 mm 3 m/s 749 mmHg 94%
06:00 +16°C° 0.5 mm 3 m/s 749 mmHg 94%
07:00 +17°C° 0.5 mm 4 m/s 748 mmHg 94%
08:00 +18°C° 0 mm 3 m/s 748 mmHg 89%
09:00 +19°C° 0 mm 3 m/s 749 mmHg 84%
10:00 +20°C° 0 mm 2 m/s 749 mmHg 80%
11:00 +21°C° 0 mm 3 m/s 749 mmHg 78%
12:00 +21°C° 0 mm 3 m/s 749 mmHg 77%
13:00 +22°C° 0 mm 3 m/s 749 mmHg 76%
14:00 +21°C° 0 mm 4 m/s 749 mmHg 78%
15:00 +20°C° 0 mm 5 m/s 749 mmHg 81%
16:00 +17°C° 0 mm 6 m/s 749 mmHg 83%
17:00 +17°C° 0 mm 6 m/s 750 mmHg 84%
18:00 +16°C° 0 mm 5 m/s 750 mmHg 84%
19:00 +15°C° 0 mm 5 m/s 750 mmHg 85%
20:00 +14°C° 0 mm 4 m/s 750 mmHg 88%
21:00 +13°C° 0 mm 4 m/s 751 mmHg 90%
22:00 +12°C° 0 mm 3 m/s 751 mmHg 93%
23:00 +12°C° 0 mm 3 m/s 751 mmHg 94%
Voir plus

Nous avons besoin de votre consentement

Meteoprog et ses fournisseurs de services peuvent stocker et accéder à des données personnelles telles que des cookies, des identifiants d'appareils ou d'autres technologies similaires sur votre appareil et traiter ces données pour personnaliser le contenu et les publicités, ainsi que pour fournir des fonctionnalités de médias sociaux et analyser le trafic.

  • Stocker et/ou accéder à des informations sur votre appareil

    Des cookies, des identifiants d'appareils ou d'autres informations peuvent être stockés ou accessibles sur votre appareil aux fins indiquées ci-dessus.

  • Annonces et contenus personnalisés, mesure des annonces et des contenus, connaissance de l'audience et développement de produits

    Les annonces et le contenu peuvent être personnalisés en fonction d'un profil. D'autres données peuvent être ajoutées pour mieux personnaliser les annonces et le contenu. Les performances des publicités et du contenu peuvent être mesurées. Il est possible d'obtenir des informations sur le public qui a vu les publicités et le contenu. Ces données peuvent être utilisées pour développer ou améliorer l'expérience de l'utilisateur, les systèmes et les logiciels.

En cliquant sur "J'accepte", vous autorisez l'utilisation de cookies, des identifiants d'appareils, des balises web ou d'autres technologies similaires. Vos paramètres peuvent être modifiés dans le navigateur de votre appareil.

Dans certains cas, des intérêts légitimes peuvent être invoqués plutôt qu'un consentement. Vous pouvez en savoir plus à ce sujet dans notre Politique de confidentialité et de cookies.